weather.gov     
National Weather Service

Terminal Aerodrome Forecast
NWS Homepage
This page is being discontinued on March 12, 2014.
The same data is available at this site. Please update your bookmarks.
Thank you, and we apologize for the inconvenience.
Please send an email to SR-SRH.Webmaster@noaa.gov with any concerns.


Current Version
Previous Version:    01  02  03  04  05  06  07  08  09  10  11  12  13  14  15  16  17  18  19  20  21  22  23  
[Printable]
505
FTUS41 KRNK 311128
TAFLYH
TAF
KLYH 311128Z 3112/0112 00000KT 6SM BR SCT250
     FM311300 21005KT P6SM SCT050
     FM312200 20004KT P6SM BKN060
     FM010200 00000KT P6SM SCT050 BKN100
     FM010900 VRB03KT 4SM -SHRA SCT025 OVC040=


505
FTUS41 KRNK 311128
TAFLYH
TAF
KLYH 311128Z 3112/0112 00000KT 6SM BR SCT250
     FM311300 21005KT P6SM SCT050
     FM312200 20004KT P6SM BKN060
     FM010200 00000KT P6SM SCT050 BKN100
     FM010900 VRB03KT 4SM -SHRA SCT025 OVC040=




U.S. Dept. of Commerce
NOAA National Weather Service
1325 East West Highway
Silver Spring, MD 20910
E-mail: w-nws.webmaster@noaa.gov
Page last modified: May 16, 2007
NATIONAL WEATHER SERVICE: for Safety, for Work, for Fun - FOR LIFE